Time,TemperatureF,DewpointF,PressureIn,WindDirection,WindDirectionDegrees,WindSpeedMPH,WindSpeedGustMPH,Humidity,HourlyPrecipIn,Conditions,Clouds,dailyrainin,SoftwareType,DateUTC
2013-03-12 00:07:00,12.9,21.6,30.09,SSW,200,1.0,2.0,92,0.00,,,0.00,meteohub,2013-03-12 05:07:00,
2013-03-12 00:12:00,14.0,22.5,30.10,SSW,200,0.0,2.0,92,0.00,,,0.00,meteohub,2013-03-12 05:12:00,
2013-03-12 00:17:00,12.9,22.5,30.09,SSW,200,0.0,2.0,91,0.00,,,0.00,meteohub,2013-03-12 05:17:00,
2013-03-12 00:22:00,12.9,22.6,30.09,SSW,200,0.0,2.0,91,0.00,,,0.00,meteohub,2013-03-12 05:22:00,
2013-03-12 00:32:00,12.9,22.8,30.10,SSW,200,0.0,1.0,91,0.00,,,0.00,meteohub,2013-03-12 05:32:00,
2013-03-12 00:42:00,12.9,17.4,30.11,SSW,200,0.0,1.0,91,0.00,,,0.00,meteohub,2013-03-12 05:42:00,
2013-03-12 00:47:00,12.9,16.7,30.11,SSW,200,0.0,1.0,91,0.00,,,0.00,meteohub,2013-03-12 05:47:00,
2013-03-12 00:52:00,12.9,16.7,30.11,SSW,200,0.0,0.0,91,0.00,,,0.00,meteohub,2013-03-12 05:52:00,
2013-03-12 00:57:00,12.9,17.2,30.12,SSW,200,0.0,0.0,90,0.00,,,0.00,meteohub,2013-03-12 05:57:00,
2013-03-12 01:02:00,12.9,17.6,30.12,SSW,200,0.0,0.0,90,0.00,,,0.00,meteohub,2013-03-12 06:02:00,
2013-03-12 01:07:00,12.0,18.0,30.12,SSW,200,0.0,0.0,90,0.00,,,0.00,meteohub,2013-03-12 06:07:00,
2013-03-12 01:17:00,12.0,18.0,30.13,SSW,200,0.0,0.0,90,0.00,,,0.00,meteohub,2013-03-12 06:17:00,
2013-03-12 01:22:00,12.0,17.4,30.13,SSW,200,0.0,0.0,90,0.00,,,0.00,meteohub,2013-03-12 06:22:00,
2013-03-12 01:27:00,12.0,16.9,30.13,SSW,200,0.0,0.0,90,0.00,,,0.00,meteohub,2013-03-12 06:27:00,
2013-03-12 01:32:00,12.0,17.1,30.14,SSW,200,0.0,0.0,91,0.00,,,0.00,meteohub,2013-03-12 06:32:00,
2013-03-12 01:37:00,12.0,17.4,30.14,SSW,200,0.0,2.0,91,0.00,,,0.00,meteohub,2013-03-12 06:37:00,
2013-03-12 01:42:00,12.0,17.4,30.15,SSW,200,0.0,2.0,91,0.00,,,0.00,meteohub,2013-03-12 06:42:00,
2013-03-12 01:47:00,12.0,17.8,30.14,SSW,200,0.0,2.0,92,0.00,,,0.00,meteohub,2013-03-12 06:47:00,
2013-03-12 01:57:00,12.0,19.4,30.14,SSW,200,0.0,1.0,90,0.00,,,0.00,meteohub,2013-03-12 06:57:00,
2013-03-12 02:02:00,12.0,19.8,30.14,SSW,200,0.0,1.0,90,0.00,,,0.00,meteohub,2013-03-12 07:02:00,
2013-03-12 02:07:00,12.0,20.1,30.14,SSW,200,0.0,1.0,90,0.00,,,0.00,meteohub,2013-03-12 07:07:00,
2013-03-12 02:12:00,12.0,19.9,30.14,SSW,200,0.0,0.0,91,0.00,,,0.00,meteohub,2013-03-12 07:12:00,
2013-03-12 02:17:00,10.9,20.5,30.14,SSW,200,1.0,1.0,90,0.00,,,0.00,meteohub,2013-03-12 07:17:00,
2013-03-12 02:22:00,10.9,20.8,30.14,SSW,200,0.0,2.0,90,0.00,,,0.00,meteohub,2013-03-12 07:22:00,
2013-03-12 02:27:00,10.9,21.2,30.14,SSW,200,0.0,2.0,90,0.00,,,0.00,meteohub,2013-03-12 07:27:00,
2013-03-12 02:32:00,10.9,21.4,30.15,SSW,200,0.0,2.0,91,0.00,,,0.00,meteohub,2013-03-12 07:32:00,
2013-03-12 02:37:00,12.0,21.2,30.15,SSW,200,0.0,2.0,91,0.00,,,0.00,meteohub,2013-03-12 07:37:00,
2013-03-12 02:42:00,12.0,20.7,30.15,SSW,200,0.0,2.0,91,0.00,,,0.00,meteohub,2013-03-12 07:42:00,
2013-03-12 02:47:00,12.0,19.6,30.15,SSW,200,0.0,0.0,91,0.00,,,0.00,meteohub,2013-03-12 07:47:00,
2013-03-12 02:52:00,12.0,16.7,30.16,SSW,200,0.0,0.0,91,0.00,,,0.00,meteohub,2013-03-12 07:52:00,
2013-03-12 03:02:00,12.0,14.5,30.15,SSW,200,0.0,1.0,90,0.00,,,0.00,meteohub,2013-03-12 08:02:00,
2013-03-12 03:12:00,12.0,13.8,30.15,SSW,200,0.0,1.0,90,0.00,,,0.00,meteohub,2013-03-12 08:12:00,
2013-03-12 03:17:00,10.9,14.2,30.15,SSW,200,0.0,1.0,90,0.00,,,0.00,meteohub,2013-03-12 08:17:00,
2013-03-12 03:22:00,10.9,15.4,30.15,SSW,200,0.0,1.0,90,0.00,,,0.00,meteohub,2013-03-12 08:22:00,
2013-03-12 03:27:00,10.9,16.3,30.15,SSW,200,0.0,2.0,89,0.00,,,0.00,meteohub,2013-03-12 08:27:00,
2013-03-12 03:32:00,10.0,16.3,30.15,SSW,200,0.0,2.0,90,0.00,,,0.00,meteohub,2013-03-12 08:32:00,
2013-03-12 03:37:00,10.0,16.5,30.15,SSW,200,1.0,2.0,90,0.00,,,0.00,meteohub,2013-03-12 08:37:00,
2013-03-12 03:47:00,12.0,18.3,30.15,SSW,200,3.0,3.0,92,0.00,,,0.00,meteohub,2013-03-12 08:47:00,
2013-03-12 03:52:00,12.9,19.2,30.15,SSW,200,3.0,4.0,93,0.00,,,0.00,meteohub,2013-03-12 08:52:00,
2013-03-12 03:57:00,14.0,19.8,30.15,SSW,200,3.0,4.0,93,0.00,,,0.00,meteohub,2013-03-12 08:57:00,
2013-03-12 04:02:00,15.1,20.3,30.15,SSW,200,0.0,4.0,93,0.00,,,0.00,meteohub,2013-03-12 09:02:00,
2013-03-12 04:07:00,15.1,18.0,30.15,SSW,200,0.0,4.0,91,0.00,,,0.00,meteohub,2013-03-12 09:07:00,
2013-03-12 04:12:00,14.0,17.4,30.15,SSW,200,0.0,3.0,90,0.00,,,0.00,meteohub,2013-03-12 09:12:00,
2013-03-12 04:17:00,14.0,17.6,30.14,SSW,200,0.0,2.0,90,0.00,,,0.00,meteohub,2013-03-12 09:17:00,
2013-03-12 04:27:00,12.0,18.0,30.14,SSW,200,1.0,2.0,89,0.00,,,0.00,meteohub,2013-03-12 09:27:00,
2013-03-12 04:32:00,12.0,18.1,30.14,SSW,200,0.0,2.0,90,0.00,,,0.00,meteohub,2013-03-12 09:32:00,
2013-03-12 04:37:00,12.0,18.5,30.14,SSW,200,0.0,2.0,90,0.00,,,0.00,meteohub,2013-03-12 09:37:00,
2013-03-12 04:42:00,12.0,19.0,30.14,SSW,200,2.0,2.0,90,0.00,,,0.00,meteohub,2013-03-12 09:42:00,
2013-03-12 04:47:00,12.0,19.0,30.14,SSW,200,0.0,3.0,90,0.00,,,0.00,meteohub,2013-03-12 09:47:00,
2013-03-12 04:52:00,12.0,18.9,30.14,SSW,200,0.0,3.0,91,0.00,,,0.00,meteohub,2013-03-12 09:52:00,
2013-03-12 04:57:00,12.0,18.9,30.14,SSW,200,0.0,3.0,90,0.00,,,0.00,meteohub,2013-03-12 09:57:00,
2013-03-12 05:02:00,10.9,19.0,30.14,SSW,200,0.0,0.0,90,0.00,,,0.00,meteohub,2013-03-12 10:02:00,
2013-03-12 05:07:00,10.9,19.0,30.14,SSW,200,0.0,0.0,90,0.00,,,0.00,meteohub,2013-03-12 10:07:00,
2013-03-12 05:12:00,10.9,18.7,30.14,SSW,200,0.0,0.0,90,0.00,,,0.00,meteohub,2013-03-12 10:12:00,
2013-03-12 05:22:00,10.9,18.5,30.14,SSW,200,0.0,0.0,90,0.00,,,0.00,meteohub,2013-03-12 10:22:00,
2013-03-12 05:27:00,10.9,19.2,30.14,SSW,201,3.0,4.0,90,0.00,,,0.00,meteohub,2013-03-12 10:27:00,
2013-03-12 05:32:00,12.0,19.9,30.15,WSW,252,4.0,4.0,92,0.00,,,0.00,meteohub,2013-03-12 10:32:00,
2013-03-12 05:42:00,15.1,20.1,30.15,WNW,283,3.0,5.0,94,0.00,,,0.00,meteohub,2013-03-12 10:42:00,
2013-03-12 05:47:00,16.0,20.3,30.15,WNW,284,2.0,5.0,94,0.00,,,0.00,meteohub,2013-03-12 10:47:00,
2013-03-12 05:57:00,17.1,20.7,30.15,WNW,284,3.0,5.0,93,0.00,,,0.00,meteohub,2013-03-12 10:57:00,
2013-03-12 06:07:00,17.1,22.1,30.16,WNW,284,2.0,5.0,92,0.00,,,0.00,meteohub,2013-03-12 11:07:00,
2013-03-12 06:12:00,17.1,22.3,30.16,WNW,284,2.0,5.0,93,0.00,,,0.00,meteohub,2013-03-12 11:12:00,
2013-03-12 06:17:00,17.1,22.5,30.17,WNW,284,2.0,5.0,92,0.00,,,0.00,meteohub,2013-03-12 11:17:00,
2013-03-12 06:22:00,17.1,21.9,30.17,WNW,284,0.0,5.0,92,0.00,,,0.00,meteohub,2013-03-12 11:22:00,
2013-03-12 06:27:00,17.1,21.7,30.17,WNW,284,2.0,5.0,91,0.00,,,0.00,meteohub,2013-03-12 11:27:00,
2013-03-12 06:32:00,16.0,21.0,30.17,WNW,288,4.0,5.0,92,0.00,,,0.00,meteohub,2013-03-12 11:32:00,
2013-03-12 06:37:00,16.0,22.1,30.18,WNW,282,7.0,9.0,91,0.00,,,0.00,meteohub,2013-03-12 11:37:00,
2013-03-12 06:47:00,18.0,22.1,30.18,West,279,6.0,13.0,93,0.00,,,0.00,meteohub,2013-03-12 11:47:00,
2013-03-12 06:52:00,18.0,22.3,30.18,WNW,284,7.0,13.0,94,0.00,,,0.00,meteohub,2013-03-12 11:52:00,
2013-03-12 06:57:00,19.0,22.3,30.19,WNW,287,5.0,9.0,94,0.00,,,0.00,meteohub,2013-03-12 11:57:00,
2013-03-12 07:07:00,21.0,22.3,30.18,WNW,285,9.0,11.0,94,0.00,,,0.00,meteohub,2013-03-12 12:07:00,
2013-03-12 07:17:00,23.0,22.5,30.18,WNW,296,9.0,12.0,94,0.00,,,0.00,meteohub,2013-03-12 12:17:00,
2013-03-12 07:27:00,24.1,21.9,30.18,WNW,295,10.0,14.0,94,0.00,,,0.00,meteohub,2013-03-12 12:27:00,
2013-03-12 07:32:00,25.0,22.1,30.18,WNW,296,10.0,14.0,94,0.00,,,0.00,meteohub,2013-03-12 12:32:00,
2013-03-12 07:37:00,25.0,21.7,30.18,WNW,292,13.0,14.0,94,0.00,,,0.00,meteohub,2013-03-12 12:37:00,
2013-03-12 07:42:00,26.1,22.3,30.18,WNW,302,6.0,15.0,93,0.00,,,0.00,meteohub,2013-03-12 12:42:00,
2013-03-12 07:47:00,27.0,22.3,30.18,WNW,290,9.0,15.0,93,0.00,,,0.00,meteohub,2013-03-12 12:47:00,
2013-03-12 07:57:00,27.0,21.9,30.19,WNW,300,4.0,15.0,92,0.00,,,0.00,meteohub,2013-03-12 12:57:00,
2013-03-12 08:02:00,26.1,21.9,30.19,NW,316,7.0,14.0,91,0.00,,,0.00,meteohub,2013-03-12 13:02:00,
2013-03-12 08:07:00,26.1,22.5,30.19,NW,316,7.0,12.0,91,0.00,,,0.00,meteohub,2013-03-12 13:07:00,
2013-03-12 08:17:00,28.0,22.8,30.20,WNW,300,9.0,15.0,92,0.00,,,0.00,meteohub,2013-03-12 13:17:00,
2013-03-12 08:27:00,28.0,22.8,30.21,NW,304,10.0,15.0,91,0.00,,,0.00,meteohub,2013-03-12 13:27:00,
2013-03-12 08:32:00,28.9,23.0,30.22,NW,317,9.0,15.0,90,0.00,,,0.00,meteohub,2013-03-12 13:32:00,
2013-03-12 08:37:00,28.9,23.0,30.22,NW,311,9.0,14.0,90,0.00,,,0.00,meteohub,2013-03-12 13:37:00,
2013-03-12 08:42:00,28.9,23.0,30.22,WNW,296,7.0,14.0,90,0.00,,,0.00,meteohub,2013-03-12 13:42:00,
2013-03-12 08:47:00,28.9,22.6,30.22,NW,313,10.0,16.0,90,0.00,,,0.00,meteohub,2013-03-12 13:47:00,
2013-03-12 08:57:00,28.9,22.8,30.22,NW,306,7.0,16.0,89,0.00,,,0.00,meteohub,2013-03-12 13:57:00,
2013-03-12 09:02:00,28.9,22.8,30.23,WNW,302,6.0,17.0,89,0.00,,,0.00,meteohub,2013-03-12 14:02:00,
2013-03-12 09:07:00,30.0,22.6,30.23,WNW,287,7.0,17.0,89,0.00,,,0.00,meteohub,2013-03-12 14:07:00,
2013-03-12 09:12:00,30.0,22.6,30.23,NW,306,10.0,18.0,88,0.00,,,0.00,meteohub,2013-03-12 14:12:00,
2013-03-12 09:17:00,30.0,22.6,30.23,NW,321,18.0,18.0,88,0.00,,,0.00,meteohub,2013-03-12 14:17:00,
2013-03-12 09:27:00,30.9,22.8,30.24,NW,315,14.0,21.0,87,0.00,,,0.00,meteohub,2013-03-12 14:27:00,
2013-03-12 09:32:00,30.9,22.8,30.24,NW,313,15.0,23.0,87,0.00,,,0.00,meteohub,2013-03-12 14:32:00,
2013-03-12 09:37:00,30.9,23.0,30.24,NNW,328,8.0,23.0,87,0.00,,,0.00,meteohub,2013-03-12 14:37:00,
2013-03-12 09:47:00,30.9,23.4,30.25,NNW,329,11.0,23.0,92,0.00,,,0.00,meteohub,2013-03-12 14:47:00,
2013-03-12 09:52:00,30.9,23.2,30.25,NW,309,11.0,23.0,86,0.00,,,0.00,meteohub,2013-03-12 14:52:00,
2013-03-12 09:57:00,30.9,23.5,30.25,NW,306,7.0,23.0,86,0.00,,,0.00,meteohub,2013-03-12 14:57:00,
2013-03-12 10:02:00,32.0,23.2,30.25,NW,304,10.0,23.0,86,0.00,,,0.00,meteohub,2013-03-12 15:02:00,
2013-03-12 10:07:00,32.0,23.4,30.25,NW,317,9.0,19.0,86,0.00,,,0.00,meteohub,2013-03-12 15:07:00,
2013-03-12 10:12:00,32.0,23.5,30.25,WNW,288,8.0,18.0,85,0.00,,,0.00,meteohub,2013-03-12 15:12:00,
2013-03-12 10:17:00,32.0,23.7,30.25,NW,304,15.0,26.0,85,0.00,,,0.00,meteohub,2013-03-12 15:17:00,
2013-03-12 10:22:00,32.0,23.7,30.25,NW,305,18.0,26.0,85,0.00,,,0.00,meteohub,2013-03-12 15:22:00,
2013-03-12 10:27:00,32.0,23.7,30.25,NW,306,10.0,20.0,85,0.00,,,0.00,meteohub,2013-03-12 15:27:00,
2013-03-12 10:37:00,33.1,24.3,30.26,NW,314,11.0,18.0,85,0.00,,,0.00,meteohub,2013-03-12 15:37:00,
2013-03-12 10:42:00,33.1,24.3,30.26,NW,305,5.0,17.0,85,0.00,,,0.00,meteohub,2013-03-12 15:42:00,
2013-03-12 10:47:00,33.1,24.4,30.27,NW,316,9.0,17.0,84,0.00,,,0.00,meteohub,2013-03-12 15:47:00,
2013-03-12 10:52:00,33.1,24.3,30.27,WNW,292,8.0,19.0,84,0.00,,,0.00,meteohub,2013-03-12 15:52:00,
2013-03-12 11:02:00,33.1,24.4,30.27,NW,304,13.0,19.0,84,0.00,,,0.00,meteohub,2013-03-12 16:02:00,
2013-03-12 11:07:00,33.1,24.3,30.27,WNW,302,9.0,20.0,84,0.00,,,0.00,meteohub,2013-03-12 16:07:00,
2013-03-12 11:12:00,33.1,24.3,30.27,NW,312,9.0,21.0,84,0.00,,,0.00,meteohub,2013-03-12 16:12:00,
2013-03-12 11:17:00,33.1,23.9,30.27,NW,324,12.0,21.0,83,0.00,,,0.00,meteohub,2013-03-12 16:17:00,
2013-03-12 11:27:00,33.1,24.4,30.27,WNW,289,14.0,19.0,84,0.00,,,0.00,meteohub,2013-03-12 16:27:00,
2013-03-12 11:32:00,34.0,24.8,30.27,WNW,295,7.0,20.0,84,0.00,,,0.00,meteohub,2013-03-12 16:32:00,
2013-03-12 11:37:00,33.1,24.3,30.27,WNW,292,17.0,20.0,83,0.00,,,0.00,meteohub,2013-03-12 16:37:00,
2013-03-12 11:47:00,33.1,23.7,30.28,WNW,292,13.0,26.0,83,0.00,,,0.00,meteohub,2013-03-12 16:47:00,
2013-03-12 11:52:00,33.1,24.1,30.29,NW,313,15.0,26.0,83,0.00,,,0.00,meteohub,2013-03-12 16:52:00,
2013-03-12 11:57:00,33.1,23.7,30.29,NW,306,16.0,22.0,83,0.00,,,0.00,meteohub,2013-03-12 16:57:00,
2013-03-12 12:02:00,33.1,23.7,30.29,WNW,298,10.0,23.0,83,0.00,,,0.00,meteohub,2013-03-12 17:02:00,
2013-03-12 12:07:00,33.1,24.3,30.29,NW,305,6.0,23.0,84,0.00,,,0.00,meteohub,2013-03-12 17:07:00,
2013-03-12 12:12:00,34.0,24.3,30.30,WNW,284,8.0,23.0,83,0.00,,,0.00,meteohub,2013-03-12 17:12:00,
2013-03-12 12:22:00,34.0,23.9,30.30,WNW,300,14.0,25.0,82,0.00,,,0.00,meteohub,2013-03-12 17:22:00,
2013-03-12 12:27:00,34.0,24.1,30.30,NW,313,9.0,25.0,82,0.00,,,0.00,meteohub,2013-03-12 17:27:00,
2013-03-12 12:32:00,34.0,24.6,30.30,WNW,288,12.0,25.0,81,0.00,,,0.00,meteohub,2013-03-12 17:32:00,
2013-03-12 12:37:00,34.0,23.7,30.30,WNW,298,12.0,27.0,80,0.00,,,0.00,meteohub,2013-03-12 17:37:00,
2013-03-12 12:47:00,34.0,24.4,30.30,NW,304,20.0,27.0,80,0.00,,,0.00,meteohub,2013-03-12 17:47:00,
2013-03-12 12:57:00,34.0,24.4,30.30,NNW,329,10.0,21.0,79,0.00,,,0.00,meteohub,2013-03-12 17:57:00,
2013-03-12 13:02:00,34.0,24.3,30.30,WNW,283,19.0,22.0,79,0.00,,,0.00,meteohub,2013-03-12 18:02:00,
2013-03-12 13:07:00,33.1,24.1,30.31,NW,311,11.0,25.0,81,0.00,,,0.00,meteohub,2013-03-12 18:07:00,
2013-03-12 13:12:00,34.0,24.4,30.31,WNW,282,15.0,25.0,80,0.00,,,0.00,meteohub,2013-03-12 18:12:00,
2013-03-12 13:22:00,34.0,24.6,30.31,WNW,289,19.0,24.0,80,0.00,,,0.00,meteohub,2013-03-12 18:22:00,
2013-03-12 13:27:00,34.0,24.3,30.31,WNW,300,14.0,24.0,80,0.00,,,0.00,meteohub,2013-03-12 18:27:00,
2013-03-12 13:37:00,34.0,24.3,30.31,NW,313,7.0,24.0,80,0.01,,,0.01,meteohub,2013-03-12 18:37:00,
2013-03-12 13:47:00,34.0,24.4,30.31,WNW,292,9.0,22.0,80,0.01,,,0.01,meteohub,2013-03-12 18:47:00,
2013-03-12 13:52:00,34.0,24.3,30.32,WNW,295,16.0,22.0,80,0.01,,,0.01,meteohub,2013-03-12 18:52:00,
2013-03-12 13:57:00,34.0,23.7,30.32,WNW,298,10.0,23.0,80,0.01,,,0.01,meteohub,2013-03-12 18:57:00,
2013-03-12 14:02:00,34.0,24.1,30.32,WNW,303,6.0,25.0,80,0.01,,,0.01,meteohub,2013-03-12 19:02:00,
2013-03-12 14:12:00,33.1,23.9,30.32,NW,306,11.0,25.0,79,0.01,,,0.01,meteohub,2013-03-12 19:12:00,
2013-03-12 14:17:00,33.1,24.3,30.32,WNW,300,14.0,23.0,80,0.01,,,0.01,meteohub,2013-03-12 19:17:00,
2013-03-12 14:22:00,33.1,24.4,30.32,NW,304,11.0,21.0,80,0.01,,,0.01,meteohub,2013-03-12 19:22:00,
2013-03-12 14:32:00,34.0,24.3,30.31,WNW,292,14.0,20.0,79,0.00,,,0.01,meteohub,2013-03-12 19:32:00,
2013-03-12 14:37:00,34.0,23.9,30.32,WNW,300,9.0,19.0,79,0.00,,,0.01,meteohub,2013-03-12 19:37:00,
2013-03-12 14:42:00,34.0,24.3,30.32,WNW,303,10.0,19.0,80,0.00,,,0.01,meteohub,2013-03-12 19:42:00,
2013-03-12 14:52:00,34.0,24.3,30.32,NW,311,9.0,20.0,78,0.00,,,0.01,meteohub,2013-03-12 19:52:00,
2013-03-12 14:57:00,34.0,24.3,30.32,NW,313,8.0,20.0,78,0.00,,,0.01,meteohub,2013-03-12 19:57:00,
2013-03-12 15:02:00,34.0,23.7,30.32,West,269,12.0,20.0,77,0.00,,,0.01,meteohub,2013-03-12 20:02:00,
2013-03-12 15:07:00,34.0,23.9,30.32,NW,314,9.0,23.0,77,0.00,,,0.01,meteohub,2013-03-12 20:07:00,
2013-03-12 15:17:00,34.0,23.7,30.32,NW,304,6.0,20.0,77,0.00,,,0.01,meteohub,2013-03-12 20:17:00,
2013-03-12 15:22:00,35.1,23.5,30.32,NW,306,11.0,17.0,77,0.00,,,0.01,meteohub,2013-03-12 20:22:00,
2013-03-12 15:27:00,35.1,24.4,30.32,NW,310,8.0,17.0,77,0.00,,,0.01,meteohub,2013-03-12 20:27:00,
2013-03-12 15:37:00,35.1,24.1,30.32,WNW,292,10.0,17.0,77,0.00,,,0.01,meteohub,2013-03-12 20:37:00,
2013-03-12 15:47:00,35.1,24.1,30.32,NW,305,7.0,16.0,77,0.00,,,0.01,meteohub,2013-03-12 20:47:00,
2013-03-12 15:57:00,35.1,24.6,30.32,WNW,296,10.0,18.0,76,0.00,,,0.01,meteohub,2013-03-12 20:57:00,
2013-03-12 16:02:00,35.1,24.3,30.32,NNW,332,10.0,18.0,76,0.00,,,0.01,meteohub,2013-03-12 21:02:00,
2013-03-12 16:12:00,35.1,24.6,30.32,NW,313,10.0,14.0,77,0.00,,,0.01,meteohub,2013-03-12 21:12:00,
2013-03-12 16:17:00,35.1,23.7,30.32,NW,309,12.0,19.0,76,0.00,,,0.01,meteohub,2013-03-12 21:17:00,
2013-03-12 16:27:00,35.1,23.7,30.33,NW,315,11.0,19.0,76,0.00,,,0.01,meteohub,2013-03-12 21:27:00,
2013-03-12 16:32:00,35.1,23.4,30.33,NW,314,10.0,16.0,75,0.00,,,0.01,meteohub,2013-03-12 21:32:00,
2013-03-12 16:37:00,34.0,23.5,30.33,WNW,285,14.0,16.0,76,0.00,,,0.01,meteohub,2013-03-12 21:37:00,
2013-03-12 16:47:00,34.0,24.6,30.33,NNW,327,8.0,16.0,77,0.00,,,0.01,meteohub,2013-03-12 21:47:00,
2013-03-12 16:52:00,34.0,24.6,30.33,NW,311,8.0,16.0,77,0.00,,,0.01,meteohub,2013-03-12 21:52:00,
2013-03-12 17:02:00,34.0,24.6,30.33,NW,318,8.0,15.0,77,0.00,,,0.01,meteohub,2013-03-12 22:02:00,
2013-03-12 17:07:00,34.0,23.4,30.33,WNW,288,15.0,16.0,75,0.00,,,0.01,meteohub,2013-03-12 22:07:00,
2013-03-12 17:12:00,34.0,23.9,30.34,NW,309,10.0,20.0,75,0.00,,,0.01,meteohub,2013-03-12 22:12:00,
2013-03-12 17:22:00,34.0,24.6,30.34,NW,315,7.0,18.0,76,0.00,,,0.01,meteohub,2013-03-12 22:22:00,
2013-03-12 17:27:00,34.0,24.3,30.34,NW,315,4.0,17.0,76,0.00,,,0.01,meteohub,2013-03-12 22:27:00,
2013-03-12 17:32:00,34.0,24.1,30.34,NW,305,9.0,17.0,75,0.00,,,0.01,meteohub,2013-03-12 22:32:00,
2013-03-12 17:37:00,34.0,24.3,30.34,NW,307,6.0,13.0,74,0.00,,,0.01,meteohub,2013-03-12 22:37:00,
2013-03-12 17:42:00,34.0,24.1,30.34,NNW,330,8.0,11.0,74,0.00,,,0.01,meteohub,2013-03-12 22:42:00,
2013-03-12 17:52:00,35.1,24.4,30.34,NW,321,9.0,16.0,74,0.00,,,0.01,meteohub,2013-03-12 22:52:00,
2013-03-12 17:57:00,35.1,23.5,30.34,NW,321,13.0,16.0,72,0.00,,,0.01,meteohub,2013-03-12 22:57:00,
2013-03-12 18:02:00,35.1,23.5,30.34,NNW,344,11.0,16.0,72,0.00,,,0.01,meteohub,2013-03-12 23:02:00,
2013-03-12 18:12:00,34.0,23.5,30.34,NW,323,9.0,17.0,71,0.00,,,0.01,meteohub,2013-03-12 23:12:00,
2013-03-12 18:22:00,33.1,23.4,30.35,NW,313,7.0,16.0,73,0.00,,,0.01,meteohub,2013-03-12 23:22:00,
2013-03-12 18:27:00,33.1,23.2,30.35,NW,325,4.0,14.0,72,0.00,,,0.01,meteohub,2013-03-12 23:27:00,
2013-03-12 18:37:00,33.1,22.8,30.34,NW,312,8.0,20.0,73,0.00,,,0.01,meteohub,2013-03-12 23:37:00,
2013-03-12 18:47:00,32.0,22.8,30.34,NW,309,15.0,18.0,73,0.00,,,0.01,meteohub,2013-03-12 23:47:00,
2013-03-12 18:52:00,32.0,22.6,30.35,NNW,332,10.0,18.0,73,0.00,,,0.01,meteohub,2013-03-12 23:52:00,
2013-03-12 18:57:00,32.0,22.8,30.35,NW,317,7.0,18.0,73,0.00,,,0.01,meteohub,2013-03-12 23:57:00,
2013-03-12 19:02:00,32.0,23.0,30.35,NW,311,8.0,18.0,74,0.00,,,0.01,meteohub,2013-03-13 00:02:00,
2013-03-12 19:12:00,30.9,22.5,30.35,NW,316,11.0,12.0,74,0.00,,,0.01,meteohub,2013-03-13 00:12:00,
2013-03-12 19:22:00,30.9,22.5,30.35,NNW,329,6.0,18.0,74,0.00,,,0.01,meteohub,2013-03-13 00:22:00,
2013-03-12 19:32:00,30.0,22.3,30.35,NW,319,3.0,13.0,76,0.00,,,0.01,meteohub,2013-03-13 00:32:00,
2013-03-12 19:42:00,30.0,22.1,30.36,NNW,329,2.0,13.0,77,0.00,,,0.01,meteohub,2013-03-13 00:42:00,
2013-03-12 19:52:00,28.9,21.9,30.36,NNW,328,3.0,7.0,78,0.00,,,0.01,meteohub,2013-03-13 00:52:00,
2013-03-12 19:57:00,28.9,22.1,30.36,NNW,327,3.0,7.0,80,0.00,,,0.01,meteohub,2013-03-13 00:57:00,
2013-03-12 20:02:00,28.9,21.9,30.36,NW,319,4.0,7.0,80,0.00,,,0.01,meteohub,2013-03-13 01:02:00,
2013-03-12 20:12:00,28.0,21.6,30.36,NW,317,3.0,7.0,81,0.00,,,0.01,meteohub,2013-03-13 01:12:00,
2013-03-12 20:22:00,27.0,21.4,30.36,NW,321,2.0,5.0,84,0.00,,,0.01,meteohub,2013-03-13 01:22:00,
2013-03-12 20:27:00,27.0,21.4,30.37,NNW,328,0.0,5.0,83,0.00,,,0.01,meteohub,2013-03-13 01:27:00,
2013-03-12 20:32:00,26.1,21.0,30.37,NNW,328,0.0,4.0,83,0.00,,,0.01,meteohub,2013-03-13 01:32:00,
2013-03-12 20:37:00,26.1,20.8,30.37,NNW,328,0.0,4.0,83,0.00,,,0.01,meteohub,2013-03-13 01:37:00,
2013-03-12 20:42:00,26.1,20.7,30.37,NNW,328,0.0,2.0,82,0.00,,,0.01,meteohub,2013-03-13 01:42:00,
2013-03-12 20:52:00,25.0,20.7,30.38,NNW,328,0.0,1.0,84,0.00,,,0.01,meteohub,2013-03-13 01:52:00,
2013-03-12 20:57:00,25.0,20.5,30.38,NNW,328,0.0,0.0,85,0.00,,,0.01,meteohub,2013-03-13 01:57:00,
2013-03-12 21:02:00,24.1,20.5,30.38,NNW,328,0.0,0.0,84,0.00,,,0.01,meteohub,2013-03-13 02:02:00,
2013-03-12 21:07:00,24.1,20.3,30.39,NNW,328,0.0,0.0,84,0.00,,,0.01,meteohub,2013-03-13 02:07:00,
2013-03-12 21:12:00,23.0,20.1,30.39,NNW,328,0.0,0.0,82,0.00,,,0.01,meteohub,2013-03-13 02:12:00,
2013-03-12 21:22:00,21.9,19.9,30.39,NNW,328,0.0,1.0,84,0.00,,,0.01,meteohub,2013-03-13 02:22:00,
2013-03-12 21:27:00,21.9,19.8,30.39,NNW,328,0.0,1.0,82,0.00,,,0.01,meteohub,2013-03-13 02:27:00,
2013-03-12 21:32:00,21.0,19.9,30.39,NNW,328,0.0,0.0,82,0.00,,,0.01,meteohub,2013-03-13 02:32:00,
2013-03-12 21:42:00,19.9,19.9,30.39,NNW,328,0.0,0.0,84,0.00,,,0.01,meteohub,2013-03-13 02:42:00,
2013-03-12 21:52:00,19.0,19.8,30.39,NNW,328,0.0,1.0,86,0.00,,,0.01,meteohub,2013-03-13 02:52:00,
2013-03-12 21:57:00,19.0,19.0,30.39,NNW,328,0.0,1.0,86,0.00,,,0.01,meteohub,2013-03-13 02:57:00,
2013-03-12 22:07:00,18.0,19.0,30.39,NNW,328,0.0,1.0,86,0.00,,,0.01,meteohub,2013-03-13 03:07:00,
2013-03-12 22:12:00,18.0,18.7,30.39,NNW,328,0.0,1.0,87,0.00,,,0.01,meteohub,2013-03-13 03:12:00,
2013-03-12 22:17:00,17.1,18.5,30.39,NNW,328,0.0,1.0,86,0.00,,,0.01,meteohub,2013-03-13 03:17:00,
2013-03-12 22:27:00,16.0,17.8,30.39,NNW,328,0.0,0.0,86,0.00,,,0.01,meteohub,2013-03-13 03:27:00,
2013-03-12 22:32:00,16.0,17.4,30.39,NNW,328,0.0,0.0,87,0.00,,,0.01,meteohub,2013-03-13 03:32:00,
2013-03-12 22:37:00,16.0,16.9,30.38,NNW,328,0.0,0.0,87,0.00,,,0.01,meteohub,2013-03-13 03:37:00,
2013-03-12 22:42:00,15.1,17.1,30.38,NNW,328,0.0,0.0,87,0.00,,,0.01,meteohub,2013-03-13 03:42:00,
2013-03-12 22:52:00,14.0,16.7,30.39,NNW,328,0.0,0.0,87,0.00,,,0.01,meteohub,2013-03-13 03:52:00,
2013-03-12 23:02:00,14.0,17.1,30.39,NNW,328,0.0,1.0,89,0.00,,,0.01,meteohub,2013-03-13 04:02:00,
2013-03-12 23:07:00,14.0,17.2,30.39,NNW,328,0.0,2.0,88,0.00,,,0.01,meteohub,2013-03-13 04:07:00,
2013-03-12 23:12:00,14.0,17.4,30.40,NNW,328,0.0,2.0,87,0.00,,,0.01,meteohub,2013-03-13 04:12:00,
2013-03-12 23:22:00,12.9,17.2,30.40,NNW,328,0.0,2.0,87,0.00,,,0.01,meteohub,2013-03-13 04:22:00,
2013-03-12 23:27:00,12.9,17.1,30.40,NNW,328,0.0,1.0,87,0.00,,,0.01,meteohub,2013-03-13 04:27:00,
2013-03-12 23:32:00,12.0,17.1,30.40,NNW,328,0.0,1.0,88,0.00,,,0.01,meteohub,2013-03-13 04:32:00,
2013-03-12 23:37:00,12.0,17.6,30.40,NNW,328,1.0,1.0,88,0.00,,,0.01,meteohub,2013-03-13 04:37:00,
2013-03-12 23:42:00,12.0,17.8,30.40,NNW,328,0.0,2.0,88,0.00,,,0.01,meteohub,2013-03-13 04:42:00,
2013-03-12 23:47:00,12.0,17.1,30.41,NNW,328,1.0,2.0,89,0.00,,,0.01,meteohub,2013-03-13 04:47:00,
2013-03-12 23:52:00,12.0,14.4,30.41,NNW,328,2.0,3.0,89,0.00,,,0.01,meteohub,2013-03-13 04:52:00,